Weather History for KPGD - February, 2014

Change the Weather History Date:

Thursday, February 13, 2014

  Actual Average Record
Temperature  
Mean Temperature 62 °F -  
Max Temperature 70 °F 74 °F 86 °F (1997)
Min Temperature 51 °F 51 °F 35 °F (2012)
Degree Days  
Heating Degree Days 4    
Growing Degree Days 12 (Base 50)    
Moisture  
Dew Point 54 °F    
Average Humidity 75    
Maximum Humidity 93    
Minimum Humidity 50    
Precipitation  
Precipitation 0.05 in - - ()
Sea Level Pressure  
Sea Level Pressure 29.89 in    
Wind  
Wind Speed 14 mph (WNW)    
Max Wind Speed 24 mph    
Max Gust Speed 32 mph    
Visibility 10 miles    
Events Rain    
Averages and records for this station are not official NWS values.
T = Trace of Precipitation, MM = Missing Value Source: NWS Daily Summary

Daily Weather History Graph

Daily Weather History Graph

Search for Another Location

Airport or City:

Trip Planner

Search our weather history database for the weather conditions in past years. The results will help you decide how hot, cold, wet, or windy it might be!

Date:

Astronomy

Feb. 13, 2014 Rise Set
Actual Time 7:05 AM EST 6:18 PM EST
Civil Twilight 6:42 AM EST 6:42 PM EST
Nautical Twilight 6:14 AM EST 7:10 PM EST
Astronomical Twilight 5:47 AM EST 7:37 PM EST
Moon 5:25 PM EST (2/13) 5:57 AM EST (2/13)
Length of Visible Light 12h 00m
Length of Day
11h 12m
Waxing Gibbous, 98% of the Moon is Illuminated
Feb 13
Waxing Gibbous
Feb 14
Full
Feb 22
Last Quarter
Mar 1
New
Mar 8
First Quarter

Hourly Weather History & Observations

Time (EST) Temp. Dew Point Humidity Pressure Visibility Wind Dir Wind Speed Gust Speed Precip Events Conditions
12:53 AM 64.9 °F 63.0 °F 93% 29.80 in 10.0 mi SSW 9.2 mph - N/A   Mostly Cloudy
1:53 AM 68.0 °F 64.9 °F 90% 29.79 in 10.0 mi SSW 10.4 mph - N/A   Mostly Cloudy
2:14 AM 68.0 °F 64.9 °F 90% 29.78 in 10.0 mi SSW 12.7 mph - N/A   Mostly Cloudy
2:53 AM 70.0 °F 66.0 °F 87% 29.76 in 8.0 mi SW 15.0 mph - 0.01 in Rain Light Rain
3:16 AM 68.0 °F 64.9 °F 90% 29.78 in 10.0 mi West 16.1 mph - 0.04 in   Overcast
3:26 AM 68.0 °F 64.9 °F 90% 29.78 in 10.0 mi WNW 15.0 mph - 0.04 in   Overcast
3:53 AM 66.9 °F 64.0 °F 90% 29.78 in 10.0 mi WNW 15.0 mph - 0.04 in   Overcast
4:53 AM 64.9 °F 61.0 °F 87% 29.79 in 10.0 mi WNW 16.1 mph - N/A   Overcast
5:24 AM 64.0 °F 60.1 °F 87% 29.80 in 10.0 mi WNW 20.7 mph 26.5 mph N/A   Overcast
5:53 AM 63.0 °F 59.0 °F 87% 29.83 in 10.0 mi WNW 19.6 mph 27.6 mph N/A   Overcast
6:05 AM 63.0 °F 57.9 °F 84% 29.83 in 10.0 mi WNW 16.1 mph 21.9 mph N/A   Overcast
6:28 AM 64.0 °F 55.9 °F 75% 29.84 in 10.0 mi WNW 16.1 mph - N/A   Overcast
6:53 AM 64.0 °F 55.0 °F 73% 29.85 in 10.0 mi WNW 16.1 mph 26.5 mph N/A   Overcast
7:53 AM 64.0 °F 55.0 °F 73% 29.87 in 10.0 mi WNW 12.7 mph - N/A   Overcast
8:53 AM 64.0 °F 55.0 °F 73% 29.90 in 10.0 mi WNW 15.0 mph - N/A   Mostly Cloudy
9:13 AM 64.0 °F 55.0 °F 73% 29.90 in 10.0 mi NW 19.6 mph 28.8 mph N/A   Mostly Cloudy
9:25 AM 64.9 °F 55.0 °F 70% 29.90 in 10.0 mi NW 20.7 mph 25.3 mph N/A   Scattered Clouds
9:53 AM 66.0 °F 55.0 °F 68% 29.92 in 10.0 mi NW 19.6 mph - N/A   Partly Cloudy
10:53 AM 66.9 °F 54.0 °F 63% 29.92 in 10.0 mi NW 15.0 mph - N/A   Scattered Clouds
11:53 AM 64.9 °F 52.0 °F 63% 29.91 in 10.0 mi NW 18.4 mph - N/A   Overcast
12:53 PM 68.0 °F 51.1 °F 55% 29.90 in 10.0 mi WNW 24.2 mph 32.2 mph N/A   Partly Cloudy
1:53 PM 68.0 °F 48.9 °F 50% 29.89 in 10.0 mi WNW 20.7 mph 27.6 mph N/A   Partly Cloudy
2:53 PM 66.9 °F 48.0 °F 51% 29.89 in 10.0 mi NW 19.6 mph 31.1 mph N/A   Mostly Cloudy
3:53 PM 66.0 °F 46.9 °F 50% 29.89 in 10.0 mi WNW 16.1 mph 26.5 mph N/A   Partly Cloudy
4:53 PM 63.0 °F 46.9 °F 56% 29.91 in 10.0 mi NW 19.6 mph 25.3 mph N/A   Partly Cloudy
5:53 PM 61.0 °F 46.9 °F 60% 29.93 in 10.0 mi WNW 16.1 mph - N/A   Clear
6:53 PM 57.0 °F 48.9 °F 74% 29.95 in 10.0 mi NNW 9.2 mph - N/A   Clear
7:48 PM 55.4 °F 48.2 °F 77% 29.98 in 10.0 mi NNW 8.1 mph - N/A   Mostly Cloudy
7:53 PM 55.9 °F 48.0 °F 75% 29.99 in 10.0 mi NNW 8.1 mph - N/A   Mostly Cloudy
8:05 PM 55.0 °F 48.0 °F 77% 29.99 in 10.0 mi North 8.1 mph - N/A   Scattered Clouds
8:53 PM 55.0 °F 48.9 °F 80% 30.01 in 10.0 mi NNW 8.1 mph - N/A   Clear
9:29 PM 55.0 °F 48.0 °F 77% 30.02 in 10.0 mi NNW 8.1 mph - N/A   Mostly Cloudy
9:53 PM 54.0 °F 48.0 °F 80% 30.02 in 10.0 mi NNW 9.2 mph - N/A   Mostly Cloudy
10:08 PM 54.0 °F 48.0 °F 80% 30.02 in 10.0 mi NW 9.2 mph - N/A   Scattered Clouds
10:53 PM 53.1 °F 48.0 °F 83% 30.02 in 10.0 mi NW 8.1 mph - N/A   Clear
11:53 PM 51.1 °F 46.9 °F 86% 30.02 in 10.0 mi NNW 4.6 mph - N/A   Clear